Benson, MN

8:12 AM CDT on September 30, 2016 (GMT -0500)
Benson Municipal

Weather History for KBBB - May, 2014

Change the Weather History Date:

Sunday, May 18, 2014

  Actual Average Record
Temperature  
Mean Temperature 55 °F -  
Max Temperature 75 °F 73 °F 95 °F (1998)
Min Temperature 35 °F 48 °F 30 °F (2002)
Degree Days  
Heating Degree Days 10    
Growing Degree Days 5 (Base 50)    
Moisture  
Dew Point 38 °F    
Average Humidity 47    
Maximum Humidity 87    
Minimum Humidity 28    
Precipitation  
Precipitation 0.00 in - - ()
Sea Level Pressure  
Sea Level Pressure 29.97 in    
Wind  
Wind Speed 9 mph (SW)    
Max Wind Speed 22 mph    
Max Gust Speed 28 mph    
Visibility 10 miles    
Events      
Averages and records for this station are not official NWS values.
T = Trace of Precipitation, MM = Missing Value Source: NWS Daily Summary

Daily Weather History Graph

Daily Weather History Graph

Search for Another Location

Airport or City:

Trip Planner

Search our weather history database for the weather conditions in past years. The results will help you decide how hot, cold, wet, or windy it might be!

Date:

Astronomy

May. 18, 2014 Rise Set
Actual Time 5:49 AM CDT 8:49 PM CDT
Civil Twilight 5:14 AM CDT 9:24 PM CDT
Nautical Twilight 4:29 AM CDT 10:09 PM CDT
Astronomical Twilight 3:36 AM CDT 11:03 PM CDT
Moon No Moon Rise 9:41 AM CDT (5/18)
Length of Visible Light 16h 10m
Length of Day
15h 00m
Waning Gibbous, 81% of the Moon is Illuminated
May 18
Waning Gibbous
May 21
Last Quarter
May 28
New
Jun 5
First Quarter
Jun 12
Full

Hourly Weather History & Observations

Time (CDT) Temp. Windchill Dew Point Humidity Pressure Visibility Wind Dir Wind Speed Gust Speed Precip Events Conditions
12:13 AM 48.2 °F - 33.8 °F 58% 30.01 in 10.0 mi West 6.9 mph - N/A   Clear
12:33 AM 51.8 °F - 35.6 °F 54% 30.01 in 10.0 mi WSW 8.1 mph - N/A   Clear
12:52 AM 50.0 °F - 35.6 °F 58% 30.01 in 10.0 mi WSW 6.9 mph - N/A   Clear
1:13 AM 48.2 °F - 35.6 °F 62% 30.01 in 10.0 mi WSW 8.1 mph - N/A   Clear
1:32 AM 48.2 °F - 35.6 °F 62% 30.01 in 10.0 mi WSW 6.9 mph - N/A   Clear
1:52 AM 46.4 °F 42.9 °F 33.8 °F 62% 30.01 in 10.0 mi WSW 6.9 mph - N/A   Clear
2:13 AM 44.6 °F 41.4 °F 33.8 °F 66% 30.01 in 10.0 mi WSW 5.8 mph - N/A   Clear
2:32 AM 44.6 °F 41.4 °F 33.8 °F 66% 30.01 in 10.0 mi WSW 5.8 mph - N/A   Clear
2:52 AM 46.4 °F 42.9 °F 33.8 °F 62% 30.01 in 10.0 mi WSW 6.9 mph - N/A   Clear
3:13 AM 44.6 °F 41.4 °F 33.8 °F 66% 30.01 in 10.0 mi WSW 5.8 mph - N/A   Clear
3:32 AM 44.6 °F 43.1 °F 33.8 °F 66% 30.02 in 10.0 mi SW 3.5 mph - N/A   Clear
3:53 AM 44.6 °F 43.1 °F 33.8 °F 66% 30.02 in 10.0 mi SSW 3.5 mph - N/A   Clear
4:13 AM 42.8 °F 41.1 °F 32.0 °F 66% 30.02 in 10.0 mi SSW 3.5 mph - N/A   Clear
4:32 AM 44.6 °F 43.1 °F 32.0 °F 61% 30.02 in 10.0 mi SSW 3.5 mph - N/A   Clear
4:53 AM 41.0 °F - 32.0 °F 70% 30.03 in 10.0 mi Calm Calm - N/A   Clear
5:12 AM 37.4 °F - 32.0 °F 81% 30.03 in 10.0 mi Calm Calm - N/A   Clear
5:32 AM 35.6 °F - 30.2 °F 81% 30.03 in 10.0 mi Calm Calm - N/A   Clear
5:53 AM 35.6 °F - 32.0 °F 87% 30.03 in 10.0 mi Calm Calm - N/A   Clear
6:12 AM 35.6 °F - 32.0 °F 87% 30.03 in 10.0 mi Calm Calm - N/A   Clear
6:33 AM 37.4 °F - 32.0 °F 81% 30.03 in 10.0 mi Calm Calm - N/A   Clear
6:53 AM 39.2 °F - 33.8 °F 81% 30.03 in 10.0 mi Calm Calm - N/A   Clear
7:12 AM 44.6 °F 42.2 °F 35.6 °F 71% 30.03 in 10.0 mi SSE 4.6 mph - N/A   Clear
7:32 AM 48.2 °F - 35.6 °F 62% 30.02 in 10.0 mi South 5.8 mph - N/A   Clear
7:53 AM 50.0 °F - 37.4 °F 62% 30.03 in 10.0 mi South 5.8 mph - N/A   Clear
8:12 AM 53.6 °F - 39.2 °F 58% 30.03 in 10.0 mi SSW 5.8 mph - N/A   Clear
8:33 AM 55.4 °F - 41.0 °F 58% 30.02 in 10.0 mi SSW 6.9 mph - N/A   Clear
8:53 AM 59.0 °F - 42.8 °F 55% 30.02 in 10.0 mi SW 6.9 mph - N/A   Clear
9:12 AM 62.6 °F - 42.8 °F 48% 30.02 in 10.0 mi WSW 9.2 mph - N/A   Clear
9:33 AM 64.4 °F - 44.6 °F 49% 30.02 in 10.0 mi SW 11.5 mph - N/A   Clear
9:52 AM 64.4 °F - 42.8 °F 45% 30.01 in 10.0 mi WSW 16.1 mph 23.0 mph N/A   Scattered Clouds
10:13 AM 66.2 °F - 42.8 °F 43% 30.01 in 10.0 mi SW 16.1 mph - N/A   Scattered Clouds
10:33 AM 66.2 °F - 42.8 °F 43% 30.01 in 10.0 mi WSW 15.0 mph - N/A   Scattered Clouds
10:52 AM 64.4 °F - 41.0 °F 42% 30.01 in 10.0 mi WSW 15.0 mph 24.2 mph N/A   Mostly Cloudy
11:13 AM 64.4 °F - 42.8 °F 45% 30.01 in 10.0 mi WSW 12.7 mph 19.6 mph N/A   Overcast
11:33 AM 66.2 °F - 42.8 °F 43% 30.01 in 10.0 mi SW 16.1 mph 24.2 mph N/A   Mostly Cloudy
11:52 AM 66.2 °F - 42.8 °F 43% 30.00 in 10.0 mi WSW 18.4 mph 24.2 mph N/A   Scattered Clouds
12:13 PM 66.2 °F - 42.8 °F 43% 30.00 in 10.0 mi SW 18.4 mph 23.0 mph N/A   Scattered Clouds
12:32 PM 66.2 °F - 42.8 °F 43% 29.99 in 10.0 mi SW 15.0 mph 23.0 mph N/A   Scattered Clouds
12:52 PM 69.8 °F - 42.8 °F 38% 29.98 in 10.0 mi WSW 17.3 mph 24.2 mph N/A   Scattered Clouds
1:13 PM 69.8 °F - 42.8 °F 38% 29.98 in 10.0 mi SW 15.0 mph 21.9 mph N/A   Scattered Clouds
1:32 PM 69.8 °F - 42.8 °F 38% 29.97 in 10.0 mi SW 18.4 mph 25.3 mph N/A   Scattered Clouds
1:52 PM 69.8 °F - 41.0 °F 35% 29.96 in 10.0 mi SW 18.4 mph 24.2 mph N/A   Scattered Clouds
2:13 PM 73.4 °F - 41.0 °F 31% 29.95 in 10.0 mi SW 15.0 mph 26.5 mph N/A   Scattered Clouds
2:32 PM 69.8 °F - 41.0 °F 35% 29.95 in 10.0 mi SW 15.0 mph 24.2 mph N/A   Scattered Clouds
2:53 PM 73.4 °F - 42.8 °F 33% 29.94 in 10.0 mi SW 19.6 mph 26.5 mph N/A   Clear
3:13 PM 73.4 °F - 41.0 °F 31% 29.93 in 10.0 mi SSW 21.9 mph 27.6 mph N/A   Scattered Clouds
3:32 PM 73.4 °F - 41.0 °F 31% 29.92 in 10.0 mi SW 17.3 mph 25.3 mph N/A   Scattered Clouds
3:53 PM 73.4 °F - 41.0 °F 31% 29.92 in 10.0 mi SW 15.0 mph 21.9 mph N/A   Scattered Clouds
4:12 PM 73.4 °F - 41.0 °F 31% 29.91 in 10.0 mi SSW 15.0 mph 25.3 mph N/A   Scattered Clouds
4:32 PM 75.2 °F - 41.0 °F 29% 29.90 in 10.0 mi WSW 19.6 mph 24.2 mph N/A   Scattered Clouds
4:53 PM 73.4 °F - 39.2 °F 29% 29.90 in 10.0 mi SW 17.3 mph 27.6 mph N/A   Scattered Clouds
5:12 PM 71.6 °F - 39.2 °F 31% 29.90 in 10.0 mi SW 15.0 mph 20.7 mph N/A   Clear
5:32 PM 73.4 °F - 39.2 °F 29% 29.89 in 10.0 mi SW 17.3 mph 21.9 mph N/A   Scattered Clouds
5:53 PM 73.4 °F - 39.2 °F 29% 29.89 in 10.0 mi SSW 10.4 mph 21.9 mph N/A   Scattered Clouds
6:12 PM 73.4 °F - 39.2 °F 29% 29.89 in 10.0 mi SSW 12.7 mph 20.7 mph N/A   Clear
6:33 PM 71.6 °F - 37.4 °F 29% 29.88 in 10.0 mi SSW 13.8 mph 19.6 mph N/A   Clear
6:52 PM 71.6 °F - 37.4 °F 29% 29.88 in 10.0 mi SSW 15.0 mph - N/A   Scattered Clouds
7:12 PM 71.6 °F - 37.4 °F 29% 29.88 in 10.0 mi SSW 13.8 mph 21.9 mph N/A   Clear
7:33 PM 69.8 °F - 35.6 °F 28% 29.88 in 10.0 mi SSW 15.0 mph 21.9 mph N/A   Clear
7:52 PM 69.8 °F - 35.6 °F 28% 29.89 in 10.0 mi South 10.4 mph - N/A   Clear
8:12 PM 69.8 °F - 35.6 °F 28% 29.88 in 10.0 mi South 11.5 mph 17.3 mph N/A   Clear
8:33 PM 68.0 °F - 35.6 °F 30% 29.89 in 10.0 mi South 10.4 mph - N/A   Clear
8:52 PM 66.2 °F - 35.6 °F 32% 29.89 in 10.0 mi SSW 13.8 mph 18.4 mph N/A   Mostly Cloudy
9:13 PM 66.2 °F - 35.6 °F 32% 29.89 in 10.0 mi South 11.5 mph - N/A   Overcast
9:33 PM 66.2 °F - 35.6 °F 32% 29.90 in 10.0 mi SSW 11.5 mph - N/A   Overcast
9:52 PM 64.4 °F - 37.4 °F 37% 29.91 in 10.0 mi SSW 9.2 mph - N/A   Overcast
10:13 PM 64.4 °F - 37.4 °F 37% 29.91 in 10.0 mi SSW 9.2 mph - N/A   Mostly Cloudy
10:33 PM 64.4 °F - 37.4 °F 37% 29.91 in 10.0 mi South 10.4 mph 16.1 mph N/A   Overcast
10:52 PM 64.4 °F - 37.4 °F 37% 29.90 in 10.0 mi South 10.4 mph - N/A   Overcast
11:13 PM 64.4 °F - 37.4 °F 37% 29.90 in 10.0 mi South 12.7 mph - N/A   Overcast
11:33 PM 64.4 °F - 37.4 °F 37% 29.89 in 10.0 mi South 12.7 mph 19.6 mph N/A   Mostly Cloudy
11:52 PM 62.6 °F - 39.2 °F 42% 29.89 in 10.0 mi South 11.5 mph - N/A   Mostly Cloudy